EW4258 Weather Reports


Display with metric or nautical units.
time (UTC)temp
F
wind
direction
speed
MPH
gust
MPH
rain 1hr
in
rain 24hr
in
rain mn
in
humidity
%
barometer
mb
20260904155110 86 180 2.0 0.0 0.00 0.00 0.00 39 1016.1
20260904154110 86 157 2.0 3.0 0.00 0.00 0.00 38 1016.1
20260904153110 86 225 1.0 3.0 0.00 0.00 0.00 38 1016.1
20260904152110 86 292 1.0 0.0 0.00 0.00 0.00 38 1016.3
20260904150110 86 225 2.0 1.0 0.00 0.00 0.00 38 1016.4
20260904145110 85 157 1.0 2.0 0.00 0.00 0.00 38 1016.4
20260904144110 86 247 0.0 1.0 0.00 0.00 0.00 38 1016.6
20260904143110 85 157 0.0 0.0 0.00 0.00 0.00 38 1016.6
20260904142109 85 225 2.0 0.0 0.00 0.00 0.00 38 1016.9
20260904140109 85 225 2.0 2.0 0.00 0.00 0.00 38 1017.1
20260904135109 85 292 2.0 3.0 0.00 0.00 0.00 40 1017.1
20260904134109 85 225 1.0 3.0 0.00 0.00 0.00 40 1017.2
20260904133109 85 247 2.0 3.0 0.00 0.00 0.00 40 1017.2
20260904132109 85 135 1.0 2.0 0.00 0.00 0.00 40 1017.6
20260904131109 84 202 2.0 2.0 0.00 0.00 0.00 40 1017.6
20260904130109 84 22 1.0 1.0 0.00 0.00 0.00 39 1018.1
20260904124109 83 315 1.0 4.0 0.00 0.00 0.00 40 1018.1
20260904121113 82 202 2.0 2.0 0.00 0.00 0.00 42 1018.6
20260904120113 82 157 2.0 2.0 0.00 0.00 0.00 42 1018.9
20260904114113 80 202 2.0 3.0 0.00 0.00 0.00 44 1019.1
20260904113113 80 202 1.0 2.0 0.00 0.00 0.00 47 1019.1
20260904112113 79 22 1.0 1.0 0.00 0.00 0.00 48 1019.5
20260904111113 78 247 1.0 0.0 0.00 0.00 0.00 48 1019.5
20260904110113 78 157 1.0 3.0 0.00 0.00 0.00 48 1019.7
20260904105113 77 90 1.0 2.0 0.00 0.00 0.00 47 1019.7
20260904104114 77 180 1.0 3.0 0.00 0.00 0.00 47 1019.9
20260904103113 76 67 1.0 3.0 0.00 0.00 0.00 47 1019.9
20260904102113 76 157 1.0 0.0 0.00 0.00 0.00 50 1020.2
20260904100112 75 247 1.0 1.0 0.00 0.00 0.00 52 1020.7
20260904095112 74 202 1.0 1.0 0.00 0.00 0.00 54 1020.7
20260904094112 73 202 1.0 2.0 0.00 0.00 0.00 55 1020.9
20260904093112 73 157 1.0 3.0 0.00 0.00 0.00 54 1020.9
20260904092112 72 135 1.0 2.0 0.00 0.00 0.00 55 1020.6
20260904091112 71 112 1.0 2.0 0.00 0.00 0.00 55 1020.6
20260904090112 71 202 1.0 0.0 0.00 0.00 0.00 55 1021.1
20260904085111 70 112 1.0 1.0 0.00 0.00 0.00 56 1021.1
20260904084111 70 315 1.0 1.0 0.00 0.00 0.00 57 1021.2
20260904083113 69 202 1.0 1.0 0.00 0.00 0.00 59 1021.2
20260904082111 69 157 1.0 0.0 0.00 0.00 0.00 61 1021.4
20260904081111 69 135 1.0 0.0 0.00 0.00 0.00 62 1021.4
20260904080111 68 292 1.0 2.0 0.00 0.00 0.00 63 1021.5
20260904075111 68 135 1.0 0.0 0.00 0.00 0.00 63 1021.5
20260904074111 67 315 0.0 1.0 0.00 0.00 0.00 63 1021.6
20260904072111 65 225 0.0 0.0 0.00 0.00 0.00 65 1021.9
20260904071111 65 112 0.0 0.0 0.00 0.00 0.00 67 1021.9
20260904065110 64 45 0.0 0.0 0.00 0.00 0.00 68 1021.8
20260904063110 63 90 0.0 0.0 0.00 0.00 0.00 69 1021.5
20260904061110 62 67 0.0 0.0 0.00 0.00 0.00 70 1021.9
20260904060110 61 45 0.0 0.0 0.00 0.00 0.00 71 1021.9
20260904054110 60 90 0.0 0.0 0.00 0.00 0.00 72 1021.9
20260904053110 60 247 0.0 0.0 0.00 0.00 0.00 71 1021.9
20260904052110 60 67 0.0 2.0 0.00 0.00 0.00 71 1021.9
20260904051110 60 90 0.0 0.0 0.00 0.00 0.00 71 1021.9
20260904050110 60 180 0.0 0.0 0.00 0.00 0.00 71 1021.8
20260904045110 61 135 0.0 0.0 0.00 0.00 0.00 71 1021.8
20260904044109 61 135 0.0 0.0 0.00 0.00 0.00 70 1021.9
20260904043109 61 202 0.0 0.0 0.00 0.00 0.00 70 1021.9
20260904042111 61 90 0.0 0.0 0.00 0.00 0.00 70 1021.8
20260904041109 61 112 0.0 0.0 0.00 0.00 0.00 70 1021.8
20260904040109 61 180 0.0 0.0 0.00 0.00 0.00 70 1021.8
20260904035109 61 225 0.0 0.0 0.00 0.00 0.00 70 1021.8
20260904034112 61 157 1.0 0.0 0.00 0.00 0.00 70 1021.8
20260904033112 46 45 1.0 2.0 0.00 0.00 0.00 65 1021.8
20260904032111 62 180 0.0 0.0 0.00 0.00 0.00 69 1021.9
20260904031111 61 202 0.0 0.0 0.00 0.00 0.00 69 1021.9
20260904030111 61 247 0.0 0.0 0.00 0.00 0.00 70 1022.0
20260904025111 62 135 1.0 0.0 0.00 0.00 0.00 68 1022.0
20260904023110 62 135 0.0 0.0 0.00 0.00 0.00 69 1022.3
20260904022110 62 202 0.0 0.0 0.00 0.00 0.00 69 1022.1
20260904021110 62 90 0.0 0.0 0.00 0.00 0.00 68 1022.1
20260904020110 62 112 0.0 0.0 0.00 0.00 0.00 68 1022.2
20260904015110 62 90 0.0 0.0 0.00 0.00 0.00 68 1022.2
20260904014110 62 202 0.0 0.0 0.00 0.00 0.00 68 1022.1
20260904010110 64 67 0.0 0.0 0.00 0.00 0.00 66 1022.2
20260904005110 64 157 0.0 0.0 0.00 0.00 0.00 66 1022.2
20260904004110 64 135 0.0 0.0 0.00 0.00 0.00 66 1022.4
20260904003110 64 45 0.0 0.0 0.00 0.00 0.00 66 1022.4
20260904002110 64 67 0.0 0.0 0.00 0.00 0.00 66 1022.4
20260904001110 64 135 0.0 0.0 0.00 0.00 0.00 67 1022.4
20260904000110 64 157 0.0 0.0 0.00 0.00 0.00 67 1022.4
20260903235109 65 45 0.0 1.0 0.00 0.00 0.00 66 1022.4
20260903234110 65 112 0.0 0.0 0.00 0.00 0.00 66 1022.7
20260903233109 65 157 0.0 0.0 0.00 0.00 0.00 66 1022.7
20260903232110 65 90 0.0 0.0 0.00 0.00 0.00 65 1022.8
20260903231109 65 135 0.0 0.0 0.00 0.00 0.00 64 1022.8
20260903230109 65 202 0.0 0.0 0.00 0.00 0.00 64 1022.4
20260903225109 65 202 0.0 0.0 0.00 0.00 0.00 64 1022.4
20260903222109 66 90 0.0 2.0 0.00 0.00 0.00 63 1022.3
20260903220110 66 225 1.0 0.0 0.00 0.00 0.00 62 1022.3
20260903215110 66 135 1.0 0.0 0.00 0.00 0.00 63 1022.3
20260903214109 66 315 1.0 1.0 0.00 0.00 0.00 64 1022.3
20260903213109 66 67 0.0 2.0 0.00 0.00 0.00 62 1022.3
20260903212109 66 202 0.0 0.0 0.00 0.00 0.00 61 1022.0
20260903211109 67 157 0.0 0.0 0.00 0.00 0.00 61 1022.0
20260903210109 67 135 0.0 1.0 0.00 0.00 0.00 60 1022.1
20260903205109 67 202 1.0 0.0 0.00 0.00 0.00 60 1022.1
20260903204109 67 112 0.0 0.0 0.00 0.00 0.00 59 1022.1
20260903202109 68 135 0.0 0.0 0.00 0.00 0.00 58 1022.0
20260903201109 68 337 0.0 0.0 0.00 0.00 0.00 56 1022.0
20260903195114 69 202 1.0 1.0 0.00 0.00 0.00 54 1021.8
20260903194115 69 90 1.0 2.0 0.00 0.00 0.00 53 1021.6
20260903193113 69 225 0.0 0.0 0.00 0.00 0.00 52 1021.6
20260903192113 70 315 1.0 1.0 0.00 0.00 0.00 51 1021.6
20260903191113 70 360 1.0 2.0 0.00 0.00 0.00 50 1021.6
20260903190113 71 292 1.0 2.0 0.00 0.00 0.00 50 1021.6
20260903185113 71 225 1.0 2.0 0.00 0.00 0.00 50 1021.6
20260903183113 71 360 0.0 0.0 0.00 0.00 0.00 48 1020.9
20260903182113 72 315 1.0 1.0 0.00 0.00 0.00 47 1020.8
20260903181114 72 292 1.0 1.0 0.00 0.00 0.00 45 1020.8
20260903180112 73 337 2.0 1.0 0.00 0.00 0.00 45 1021.0
20260903175112 74 270 3.0 4.0 0.00 0.00 0.00 44 1021.0
20260903174112 74 337 2.0 4.0 0.00 0.00 0.00 44 1020.4
20260903173112 74 360 2.0 3.0 0.00 0.00 0.00 44 1020.4
20260903172112 74 292 2.0 2.0 0.00 0.00 0.00 44 1020.8
20260903171112 75 315 1.0 2.0 0.00 0.00 0.00 44 1020.8
20260903170112 75 292 2.0 2.0 0.00 0.00 0.00 43 1020.1
20260903164112 76 292 4.0 3.0 0.00 0.00 0.00 43 1020.8
20260903163112 76 292 4.0 5.0 0.00 0.00 0.00 42 1020.8
20260903161112 77 315 3.0 2.0 0.00 0.00 0.00 42 1020.6
20260903160112 77 337 3.0 10.0 0.00 0.00 0.00 42 1020.6